NOAA 16 DEB, 41302

Orbit data source: Space-Track

NOAA 16 DEB, 41302 is space debris in SSO originally from a launch on Thu, 21 Sep 2000 UTC launched from the Air Force Western Test Range (AFWTR). Debris objects in space refer to the collection of defunct objects orbiting the Earth. Examples of debris include non-operational satellites, rocket bodies, and fragments generated from explosions, collisions, or faulty payload assembly.

Loading next visibility...
Identifier
41302, 2000-055HE
Orbit
SSO
Country
Flag of USUS
Related business
Manufacturer
Unknown
Mission
Spacecraft
Bus & Motor
Unknown
Mass
Unknown
Launch date (UTC)
2000-09-21 (26 years ago)
Launch vehicle
Unknown
Launch site
Air Force Western Test Range (AFWTR)
Object type
Payload
Rocket body
Debris
Shape & HBR
Unknown shape, 0.1 m
Radar Cross Section
Medium (>0.1 m² and <1 m²)

Expand to show TLE details & history
Last TLE update: 10 hours ago

TLE from 10 hours ago
0 NOAA 16 DEB
1 41302U 00055HE  26235.90643732  .00002525  00000-0  10744-2 0  9994
2 41302  98.7101 297.5013 0018548  15.6218 344.5530 14.26005085548668
Epoch: 2026-08-23T21:45Z
TLE epoch observation values (Epoch: 2026-08-23T21:45:16.184Z)
Latitude
-0.00006°
Longitude
-1.0119°
Altitude
795.195 km
Speed
7.463 km/s
True Right ascension
19h 50m 00s
True Declination
0° 00' 00"
Sunlit
Object was in full shadow at epoch
Visualization orbit readout
Latitude
Unknown
Longitude
Unknown
Altitude
Unknown
Speed
Unknown
Apparent Right ascension
Unknown
Apparent Declination
Unknown
Sunlit
N/A
Visualization observer readout
Local Sidereal Time
22:43:36
Azimuth
Unknown
Elevation
Unknown
Doppler factor
Unknown
Orbital elements
Apogee altitude
815.584 km
Perigee altitude
788.948 km
Semi-major axis
7,180.403 km
Eccentricity
0.00185
Inclination
98.7101°
RAAN
297.5013°
Arg. of periapsis
15.6218°
True anomaly
344.49626°
Mean anomaly
344.553°
Eccentric anomaly
344.52464°
Mean motion
3.56714 °/min
Orbital period
100.92 mins
BSTAR
0.0010744
Loading maneuver chart data...
Computing Atmospheric mass density...
Loading historical data...
Loading historical data...
Loading historical data...
Loading historical data...
Loading historical data...
Loading historical data...
Loading historical data...

Documentation

Showing up to 5 results
|